星链-36148(STARLINK-36148)

导读

STARLINK-36148是美国太空探索技术公司Starlink星座的组网卫星,于2025年12月10日发射升空,归属发射国家美国。Starlink星座旨在为全球用户提供低延迟、高速率的宽带互联网覆盖服务,该卫星入轨后将进一步拓展Starlink星座全球组网规模,增强星座整体服务能力。

基本信息
目录编号:
67005
目录名称:
STARLINK-36148
国际标识:
2025-293C
轨道中心:
EARTH
卫星名称:
星链-36148
卫星全名:
星链-36148(STARLINK-36148)
卫星状态:
在轨 (已飞行185 天)
发射日期:
2025-12-10 UTC
国别 :
美国 (US)
星等 :
--
轨道信息
数据来源 国际轨道数据
星历时间: 2026-06-12T14:39:05+0800
23小时前
查看轨道信息
半长轴: 6950.177km
偏心率: 0.0003758
轨道倾角: 70.000°
近地点辐角 268.983°
升交点赤经 216.066°
平近点角 91.090°
近地点: 569.428km
远地点: 574.652km
周期: 96.107分钟
每日圈数: 14.983353
详细信息
固有亮度:
5
最大亮度:
2.5
卫星平台:
Starlink V1.0
覆盖范围:
全球
运营商:
太空探索技术公司
运营商所在国:
美国
制造商(研发单位):
太空探索技术公司
制造商所在国:
美国
使用方式:
暂无
卫星简介
Starlink 计划是 SpaceX 推出的全球卫星互联网项目,通过发射低轨道卫星,为全球尤其是偏远地区提供高速、低延迟的互联网服务。自 2019 年起,Starlink 已部署数千颗卫星,旨在缩小全球数字鸿沟,推动互联网普及。该项目还为军事、航空等行业提供通信支持,带来广泛经济效益。
2D轨道图
3D轨道图
轨道高度分析图
轨道倾角分析图
轨道综合分析图
查看轨道综合分析图